This is the latest recevied weather packets stored in our database for station/object W7MB. If no packets are shown the sender has not sent any weather packets the latest 10 day(s).
| Time | Temp. | Humidity | Pressure | Rain* | Wind** | Luminosity | Snow |
|---|---|---|---|---|---|---|---|
| 1777742283 | 20.56° C | 56% | 1016.2 hPa | 0 mm | - | - | - |
| 1777741923 | 20° C | 58% | 1016.2 hPa | 0 mm | - | - | - |
| 1777741563 | 19.44° C | 57% | 1016.1 hPa | 0 mm | - | - | - |
| 1777741204 | 18.89° C | 55% | 1016.1 hPa | 0 mm | - | - | - |
| 1777740843 | 18.33° C | 58% | 1016.1 hPa | 0 mm | - | - | - |
| 1777740484 | 17.78° C | 56% | 1016 hPa | 0 mm | - | - | - |
| 1777740123 | 17.22° C | 61% | 1016 hPa | 0 mm | - | - | - |
| 1777739763 | 16.67° C | 62% | 1016.1 hPa | 0 mm | - | - | - |
| 1777739403 | 16.11° C | 67% | 1016.2 hPa | 0 mm | - | - | - |
| 1777739043 | 15.56° C | 66% | 1016.3 hPa | 0 mm | - | - | - |
| 1777738683 | 15.56° C | 65% | 1016.2 hPa | 0 mm | - | - | - |
| 1777738323 | 15.56° C | 68% | 1016.2 hPa | 0 mm | - | - | - |
| 1777737963 | 15.56° C | 68% | 1016.1 hPa | 0 mm | - | - | - |
| 1777737603 | 15° C | 68% | 1016.1 hPa | 0 mm | - | - | - |
| 1777737243 | 15° C | 72% | 1016.1 hPa | 0 mm | - | - | - |
| 1777736883 | 14.44° C | 73% | 1016.1 hPa | 0 mm | - | - | - |
| 1777736523 | 14.44° C | 72% | 1016 hPa | 0 mm | - | - | - |
| 1777736163 | 13.89° C | 74% | 1016.1 hPa | 0 mm | - | - | - |
| 1777735803 | 13.33° C | 77% | 1016.1 hPa | 0 mm | - | - | - |
| 1777735443 | 12.78° C | 76% | 1016 hPa | 0 mm | - | - | - |
| 1777735083 | 12.78° C | 76% | 1016.1 hPa | 0 mm | - | - | - |
| 1777734723 | 12.22° C | 77% | 1016.1 hPa | 0 mm | - | - | - |
| 1777734363 | 12.22° C | 80% | 1016.1 hPa | 0 mm | - | - | - |
| 1777734004 | 11.67° C | 81% | 1016 hPa | 0 mm | - | - | - |
| 1777733643 | 11.11° C | 80% | 1015.9 hPa | 0 mm | - | - | - |
* Rain latest hour (hover to see other rain measurements)
** Current wind speed in m/s (hover to see current wind gust speed)